Previsão horária em Pliski

Hoje, 7 Março, Domingo

Tempo Temperatura Precipitação Vento Pressão Humidade
00:00 -5°C° 0 mm 8 m/s 742 mmHg 65%
01:00 -5°C° 0 mm 8 m/s 741 mmHg 70%
02:00 -5°C° 0 mm 8 m/s 740 mmHg 74%
03:00 -5°C° 0.2 mm 9 m/s 738 mmHg 81%
04:00 -4°C° 0.2 mm 9 m/s 737 mmHg 87%
05:00 -4°C° 0.2 mm 9 m/s 736 mmHg 93%
06:00 -5°C° 0.6 mm 9 m/s 736 mmHg 92%
07:00 -5°C° 0.6 mm 8 m/s 736 mmHg 91%
08:00 -4°C° 0.6 mm 7 m/s 735 mmHg 90%
09:00 -5°C° 0.4 mm 6 m/s 736 mmHg 87%
10:00 -5°C° 0.4 mm 6 m/s 736 mmHg 84%
11:00 -5°C° 0.4 mm 5 m/s 736 mmHg 82%
12:00 -5°C° 0.2 mm 6 m/s 736 mmHg 72%
13:00 -4°C° 0.2 mm 7 m/s 736 mmHg 62%
14:00 -5°C° 0.2 mm 9 m/s 736 mmHg 52%
15:00 -5°C° 0 mm 8 m/s 736 mmHg 55%
16:00 -4°C° 0 mm 7 m/s 736 mmHg 57%
17:00 -6°C° 0 mm 7 m/s 736 mmHg 59%
18:00 -6°C° 0 mm 6 m/s 736 mmHg 63%
19:00 -6°C° 0 mm 6 m/s 736 mmHg 67%
20:00 -7°C° 0 mm 5 m/s 736 mmHg 70%
21:00 -8°C° 0 mm 6 m/s 736 mmHg 75%
22:00 -8°C° 0 mm 6 m/s 736 mmHg 80%
23:00 -8°C° 0 mm 6 m/s 737 mmHg 85%

Amanhã, 8 Março, Segunda-feira

Tempo Temperatura Precipitação Vento Pressão Humidade
00:00 -9°C° 0.2 mm 6 m/s 737 mmHg 84%
01:00 -8°C° 0.2 mm 5 m/s 738 mmHg 83%
02:00 -8°C° 0.2 mm 5 m/s 738 mmHg 83%
03:00 -9°C° 0 mm 4 m/s 739 mmHg 82%
04:00 -10°C° 0 mm 4 m/s 739 mmHg 82%
05:00 -11°C° 0 mm 4 m/s 740 mmHg 81%
06:00 -11°C° 0 mm 4 m/s 740 mmHg 80%
07:00 -10°C° 0 mm 4 m/s 741 mmHg 79%
08:00 -10°C° 0 mm 4 m/s 742 mmHg 78%
09:00 -9°C° 0 mm 4 m/s 742 mmHg 76%
10:00 -10°C° 0 mm 5 m/s 743 mmHg 73%
11:00 -8°C° 0 mm 5 m/s 743 mmHg 70%
12:00 -8°C° 0 mm 5 m/s 744 mmHg 69%
13:00 -7°C° 0 mm 5 m/s 744 mmHg 68%
14:00 -7°C° 0 mm 5 m/s 745 mmHg 67%
15:00 -7°C° 0 mm 5 m/s 745 mmHg 68%
16:00 -8°C° 0 mm 4 m/s 745 mmHg 69%
17:00 -8°C° 0 mm 4 m/s 745 mmHg 70%
18:00 -8°C° 0 mm 3 m/s 746 mmHg 74%
19:00 -8°C° 0 mm 3 m/s 747 mmHg 77%
20:00 -8°C° 0 mm 2 m/s 747 mmHg 81%
21:00 -8°C° 0 mm 2 m/s 747 mmHg 82%
22:00 -9°C° 0 mm 2 m/s 748 mmHg 83%
23:00 -9°C° 0 mm 2 m/s 748 mmHg 84%

Depois de amanhã, 9 Março, Terça-feira

Tempo Temperatura Precipitação Vento Pressão Humidade
00:00 -9°C° 0 mm 2 m/s 748 mmHg 85%
01:00 -9°C° 0 mm 2 m/s 749 mmHg 86%
02:00 -10°C° 0 mm 2 m/s 749 mmHg 87%
03:00 -10°C° 0 mm 2 m/s 749 mmHg 88%
04:00 -12°C° 0 mm 2 m/s 749 mmHg 89%
05:00 -12°C° 0 mm 2 m/s 749 mmHg 90%
06:00 -12°C° 0 mm 2 m/s 750 mmHg 88%
07:00 -12°C° 0 mm 2 m/s 750 mmHg 85%
08:00 -12°C° 0 mm 2 m/s 751 mmHg 83%
09:00 -10°C° 0 mm 2 m/s 751 mmHg 75%
10:00 -9°C° 0 mm 2 m/s 751 mmHg 68%
11:00 -8°C° 0 mm 2 m/s 751 mmHg 61%
12:00 -7°C° 0 mm 2 m/s 752 mmHg 60%
13:00 -6°C° 0 mm 2 m/s 752 mmHg 58%
14:00 -5°C° 0 mm 2 m/s 752 mmHg 57%
15:00 -5°C° 0 mm 2 m/s 751 mmHg 60%
16:00 -6°C° 0 mm 2 m/s 751 mmHg 63%
17:00 -6°C° 0 mm 2 m/s 751 mmHg 66%
18:00 -7°C° 0 mm 3 m/s 751 mmHg 66%
19:00 -7°C° 0 mm 3 m/s 751 mmHg 66%
20:00 -7°C° 0 mm 3 m/s 751 mmHg 66%
21:00 -8°C° 0 mm 4 m/s 750 mmHg 67%
22:00 -8°C° 0 mm 4 m/s 750 mmHg 67%
23:00 -7°C° 0 mm 5 m/s 750 mmHg 67%

10 Março, Quarta-feira

Tempo Temperatura Precipitação Vento Pressão Humidade
00:00 -7°C° 0 mm 5 m/s 749 mmHg 70%
01:00 -7°C° 0 mm 5 m/s 749 mmHg 72%
02:00 -7°C° 0 mm 5 m/s 749 mmHg 75%
03:00 -7°C° 0.1 mm 5 m/s 749 mmHg 79%
04:00 -7°C° 0.1 mm 5 m/s 749 mmHg 83%
05:00 -7°C° 0.1 mm 5 m/s 748 mmHg 87%
06:00 -6°C° 0.1 mm 5 m/s 749 mmHg 87%
07:00 -6°C° 0.1 mm 5 m/s 749 mmHg 87%
08:00 -6°C° 0.1 mm 5 m/s 749 mmHg 86%
09:00 -6°C° 0.2 mm 5 m/s 749 mmHg 87%
10:00 -5°C° 0.2 mm 5 m/s 750 mmHg 87%
11:00 -4°C° 0.2 mm 4 m/s 750 mmHg 88%
12:00 -4°C° 0.5 mm 4 m/s 750 mmHg 89%
13:00 -4°C° 0.5 mm 4 m/s 750 mmHg 90%
14:00 -4°C° 0.5 mm 3 m/s 750 mmHg 91%
15:00 -5°C° 0.6 mm 3 m/s 750 mmHg 91%
16:00 -5°C° 0.6 mm 4 m/s 750 mmHg 92%
17:00 -7°C° 0.6 mm 4 m/s 750 mmHg 92%
18:00 -7°C° 0.2 mm 3 m/s 750 mmHg 92%
19:00 -8°C° 0.2 mm 3 m/s 750 mmHg 92%
20:00 -10°C° 0.2 mm 3 m/s 751 mmHg 91%
21:00 -10°C° 0 mm 3 m/s 751 mmHg 92%
22:00 -12°C° 0 mm 3 m/s 750 mmHg 92%
23:00 -12°C° 0 mm 3 m/s 750 mmHg 92%

11 Março, Quinta-feira

Tempo Temperatura Precipitação Vento Pressão Humidade
00:00 -12°C° 0 mm 2 m/s 750 mmHg 93%
01:00 -12°C° 0 mm 2 m/s 750 mmHg 93%
02:00 -12°C° 0 mm 2 m/s 750 mmHg 93%
03:00 -12°C° 0 mm 2 m/s 750 mmHg 93%
04:00 -12°C° 0 mm 2 m/s 750 mmHg 93%
05:00 -12°C° 0 mm 2 m/s 749 mmHg 92%
06:00 -12°C° 0.1 mm 2 m/s 749 mmHg 92%
07:00 -10°C° 0 mm 2 m/s 749 mmHg 91%
08:00 -12°C° 0 mm 3 m/s 749 mmHg 91%
09:00 -9°C° 0 mm 3 m/s 748 mmHg 86%
10:00 -7°C° 0 mm 3 m/s 748 mmHg 82%
11:00 -5°C° 0 mm 4 m/s 747 mmHg 77%
12:00 -4°C° 0 mm 4 m/s 747 mmHg 71%
13:00 -4°C° 0 mm 5 m/s 746 mmHg 66%
14:00 -2°C° 0 mm 5 m/s 745 mmHg 60%
15:00 -2°C° 0 mm 5 m/s 744 mmHg 61%
16:00 -4°C° 0 mm 5 m/s 743 mmHg 62%
17:00 -4°C° 0 mm 5 m/s 743 mmHg 63%
18:00 -4°C° 0.1 mm 6 m/s 742 mmHg 72%
19:00 -6°C° 0.1 mm 7 m/s 741 mmHg 81%
20:00 -6°C° 0.1 mm 7 m/s 740 mmHg 90%
21:00 -6°C° 0.7 mm 8 m/s 738 mmHg 92%
22:00 -5°C° 0.7 mm 8 m/s 737 mmHg 93%
23:00 -5°C° 0.7 mm 8 m/s 736 mmHg 95%

12 Março, Sexta-feira

Tempo Temperatura Precipitação Vento Pressão Humidade
00:00 -3°C° 0.7 mm 7 m/s 735 mmHg 95%
01:00 -2°C° 0.7 mm 7 m/s 734 mmHg 96%
02:00 -1°C° 0.7 mm 7 m/s 733 mmHg 96%
03:00 -1°C° 0.8 mm 6 m/s 732 mmHg 96%
04:00 -1°C° 0.8 mm 6 m/s 732 mmHg 96%
05:00 +1°C° 0.8 mm 5 m/s 732 mmHg 95%
06:00 +1°C° 0 mm 5 m/s 732 mmHg 94%
07:00 +1°C° 0 mm 6 m/s 732 mmHg 92%
08:00 +1°C° 0 mm 6 m/s 732 mmHg 90%
09:00 +1°C° 0 mm 6 m/s 733 mmHg 89%
10:00 +2°C° 0 mm 6 m/s 733 mmHg 88%
11:00 +2°C° 0 mm 6 m/s 733 mmHg 86%
12:00 +2°C° 0 mm 6 m/s 733 mmHg 87%
13:00 +2°C° 0 mm 6 m/s 733 mmHg 87%
14:00 +2°C° 0 mm 6 m/s 733 mmHg 88%
15:00 +1°C° 0.2 mm 5 m/s 732 mmHg 89%
16:00 +1°C° 0.2 mm 4 m/s 732 mmHg 91%
17:00 +2°C° 0.2 mm 3 m/s 732 mmHg 92%
18:00 +1°C° 0.1 mm 3 m/s 732 mmHg 92%
19:00 0°C° 0.1 mm 4 m/s 732 mmHg 91%
20:00 0°C° 0.1 mm 4 m/s 732 mmHg 90%
21:00 0°C° 0.4 mm 5 m/s 731 mmHg 92%
22:00 -1°C° 0.4 mm 7 m/s 731 mmHg 94%
23:00 -1°C° 0.4 mm 8 m/s 731 mmHg 96%
Mostrar mais

Necessitamos do seu Consentimento

A Meteoprog e os seus Fornecedores de Serviços podem armazenar e aceder a dados pessoais como cookies, identificadores do dispositivo ou outras tecnologias semelhantes existentes no seu dispositivo e processar estes dados para personalizar conteúdos e anúncios, assim como funcionalidades nas redes sociais e análise de tráfego.

  • Armazenar e/ou aceder a informações no seu dispositivo

    Os cookies, identificadores do dispositivo ou outras informações podem ser armazenados ou acedidos no seu dispositivo, para os fins acima indicados.

  • Anúncios e conteúdos personalizados, medição de anúncios e conteúdos, dados sobre o público-alvo e desenvolvimento de produtos

    Os anúncios e os conteúdos podem ser personalizados com base num perfil. Podem ser adicionados dados adicionais para uma maior personalização dos anúncios e dos conteúdos. A eficácia dos anúncios e dos conteúdos pode ser medida. Podem ser obtidas informações sobre o público que visualizou os anúncios e os conteúdos. Estes dados podem ser usados para desenvolver ou melhorar sistemas, softwares ou a experiência do utilizador.

Ao clicar em "Eu concordo”, permitirá o uso de cookies, identificadores do dispositivo e web beacons mencionados ou outras tecnologias semelhantes. As configurações do navegador do seu dispositivo podem ser alteradas.

Para certos fins, podem ser invocados interesses legítimos ao invés de consentimento. Pode ler mais informação sobre este assunto na nossa Política de Privacidade e Cookies.